Regional Weather Roundup
Issued by NWS

Home | Current Version | Previous Version | Graphics & Text | Print | Product List | Glossary Off
Versions: 1 2 3 4 5 6 7 8 9 10 11 12 13 14 15 16 17 18 19 20 21 22 23 24 25 26 27 28 29 30 31 32 33 34 35 36 37 38 39 40 41 42 43 44 45 46 47 48 49 50

000
ASUS43 KTOP 220008
RWRKS

WEATHER ROUNDUP FOR KANSAS
NATIONAL WEATHER SERVICE GOODLAND KS
600 PM CST SUN DEC 21 2014

NOTE:  "FAIR" INDICATES FEW OR NO CLOUDS BELOW 12,000 FEET WITH NO
SIGNIFICANT WEATHER AND/OR OBSTRUCTIONS TO VISIBILITY.

KSZ001>006-013>018-027>032-041>047-220100-
NORTHWEST KANSAS

CITY           SKY/WX    TMP DP  RH WIND       PRES   REMARKS
GOODLAND       CLOUDY    38  33  82 S5        29.55R
6HR MIN TEMP:  38; 6HR MAX TEMP:  53;

HAYS           CLOUDY    43  34  70 S13       29.61F
HILL CITY      CLOUDY    42  36  79 SE8       29.57F
6HR MIN TEMP:  42; 6HR MAX TEMP:  47;

RUSSELL        CLOUDY    42  41  96 S14       29.61F
6HR MIN TEMP:  41; 6HR MAX TEMP:  43; 6HR PCP: TRACE;

$$

KSZ061>065-074>080-084>089-220100-
SOUTHWEST KANSAS

CITY           SKY/WX    TMP DP  RH WIND       PRES   REMARKS
DODGE CITY     MOCLDY    41  35  79 SE13      29.60F
6HR MIN TEMP:  41; 6HR MAX TEMP:  47;

ELKHART          N/A    N/A N/A N/A MISG        N/A
GARDEN CITY    CLOUDY    44  36  73 SE10      29.56F
6HR MIN TEMP:  41; 6HR MAX TEMP:  50;

GREAT BEND     CLOUDY    43  37  81 S15       29.65R
LIBERAL        CLOUDY    45  34  65 SE9       29.58F
PRATT          CLOUDY    43  41  93 S12       29.65F FOG
$$

KSZ066>073-081>083-090>101-220100-
SOUTHEAST KANSAS

CITY           SKY/WX    TMP DP  RH WIND       PRES   REMARKS
CHANUTE        CLOUDY    45  41  86 S12       29.81F
6HR MIN TEMP:  44; 6HR MAX TEMP:  46;

COFFEYVILLE    CLOUDY    46  41  82 SE10      29.82F
6HR MIN TEMP:  46; 6HR MAX TEMP:  47;

HUTCHINSON     CLOUDY    45  42  89 S18       29.68F FOG
6HR MIN TEMP:  42; 6HR MAX TEMP:  45; 6HR PCP: TRACE;

MEDICINE LODGE   N/A     44  44 100 S13G20    29.65F
NEWTON         CLOUDY    43  37  81 S15G21    29.72F
PARSONS        CLOUDY    46  41  82 S7        29.82F
6HR MIN TEMP:  46; 6HR MAX TEMP:  48;

WICHITA INTL   DRIZZLE   45  42  89 S15G24    29.70F FOG
6HR MIN TEMP:  43; 6HR MAX TEMP:  46; 6HR PCP:  0.04;

WICHITA JABRA  CLOUDY    44  42  93 S13       29.71F
6HR MIN TEMP:  42; 6HR MAX TEMP:  44; 6HR PCP:  0.03;

WICHITA MCCONL CLOUDY    44  43  95 SE15      29.71F
WINFIELD       CLOUDY    45  42  89 S16       29.76S
6HR MIN TEMP:  45; 6HR MAX TEMP:  46;

$$

KSZ007>012-019>026-033>040-048>060-102>105-220100-
NORTHEAST KANSAS

CITY           SKY/WX    TMP DP  RH WIND       PRES   REMARKS
CONCORDIA      LGT RAIN  42  42 100 S14       29.67F FOG
6HR MIN TEMP:  41; 6HR MAX TEMP:  42; 6HR PCP: TRACE;

EMPORIA        CLOUDY    42  42 100 S16       29.75F FOG
6HR MIN TEMP:  41; 6HR MAX TEMP:  43; 6HR PCP:  0.01;

LAWRENCE       CLOUDY    44  40  85 S14       29.80F
6HR MIN TEMP:  43; 6HR MAX TEMP:  45;

MANHATTAN      CLOUDY    44  43  96 S12       29.72F
6HR MIN TEMP:  43; 6HR MAX TEMP:  45;

MARYSVILLE     LGT RAIN  43  41  93 S10G16    29.70F
OLATHE IND     CLOUDY    43  41  93 S14       29.81F
6HR MIN TEMP:  41; 6HR MAX TEMP:  45;

OLATHE EXE     CLOUDY    43  42  97 S14       29.81F
6HR MIN TEMP:  42; 6HR MAX TEMP:  45;

SALINA         CLOUDY    45  42  89 S12       29.69F
6HR MIN TEMP:  43; 6HR MAX TEMP:  45;

TOPEKA BILLARD CLOUDY    46  43  89 SE13      29.78F
TOPEKA FORBES  CLOUDY    45  41  86 S14       29.77F
6HR MIN TEMP:  44; 6HR MAX TEMP:  45; 6HR PCP:  0.01;

$$


USA.gov is the U.S. government's official web portal to all federal, state and local government web resources and services.